Content
SEND FEEDBACK

Daily
Averages
Monthly
Summary
United States of America

MAGDALENA, NEW MEXICO


Home > North America > United States > New Mexico
Elevation: 6692 feet     Latitude: 34 07N     Longitude: 107 14W

WEATHER
 
SELECT A DAY
Number of Records: 110,687;   Date Range: 1/4/95 - 8/12/14
 
SHARE

PRINT THIS DATA

[ ← Previous Day ]
WEATHER ALMANAC - JANUARY 31, 2013
[ Next Day → ]
[ °C ]   °F
Weather ElementAverageHighLow
Temperature40.1 °F55 °F (2:55 pm)25.2 °F (6:55 am)
Dewpoint17.1 °F20.3 °F (10:15 am)13.5 °F (3:55 am)
Humidity41.7 %63 % (6:55 am)23 % (3:55 pm)
Barometer30.24 in30.30 in (7:55 am)30.19 in (12:35 am)
Wind Speed6.1 mph16.1 mph (11:35 am)
Wind Gust20.7 mph (11:55 am)
Weather ElementAverage
Visibility10 mi
Wind DirectionSSE (165.9 °)

Weather ElementTotal
Precipitation---
Heating Degree Days24.9 (Base 65)
Averaged from 71 records on January 31, 2013
WEATHER CONDITIONS BREAKOUT
WIND DIRECTION BREAKOUT
WEATHER BY HOUR - JANUARY 31, 2013
[ °C ]   °F
Local TimeTemperatureDewpointHumidityBarometerVisibilityWind DirectionWind SpeedGust SpeedPrecipitationEventsConditions
12:35 AM41.2 °F15.8 °F36 %30.19 in10.0 miWNW (290°)13.8 mph19.6 mphClear
12:55 AM41.2 °F16.5 °F37 %30.19 in10.0 miWNW (300°)12.7 mphClear
1:15 AM36.3 °F14.9 °F42 %30.19 in10.0 miCalmClear
1:35 AM36.0 °F15.8 °F44 %30.19 in10.0 miCalmClear
1:55 AM35.8 °F16.5 °F46 %30.20 in10.0 miCalmClear
2:15 AM35.1 °F16.9 °F48 %30.20 in10.0 miSSE (150°)5.8 mphClear
2:35 AM36.3 °F16.9 °F45 %30.21 in10.0 miSouth (170°)3.5 mphClear
2:55 AM29.7 °F14.2 °F53 %30.21 in10.0 miSE (130°)11.5 mphClear
3:15 AM29.8 °F14.2 °F52 %30.23 in10.0 miSSE (150°)13.8 mphClear
3:35 AM28.6 °F13.8 °F54 %30.23 in10.0 miSSE (150°)6.9 mphClear
3:55 AM28.6 °F13.5 °F53 %30.23 in10.0 miSSE (160°)6.9 mphClear
4:15 AM28.9 °F13.8 °F53 %30.21 in10.0 miSE (140°)3.5 mphClear
4:35 AM28.2 °F13.8 °F55 %30.22 in10.0 miWNW (290°)4.6 mphClear
4:55 AM28.8 °F14.4 °F55 %30.23 in10.0 miWSW (240°)3.5 mphClear
5:15 AM30.4 °F15.6 °F54 %30.23 in10.0 miCalmClear
5:35 AM30.6 °F15.6 °F54 %30.24 in10.0 miSSE (150°)3.5 mphClear
5:55 AM31.1 °F15.6 °F53 %30.25 in10.0 miSSW (200°)3.5 mphClear
6:15 AM29.1 °F14.9 °F55 %30.26 in10.0 miSouth (180°)8.1 mphClear
6:35 AM28.0 °F14.9 °F58 %30.27 in10.0 miSSW (200°)5.8 mphClear
6:55 AM25.2 °F14.0 °F63 %30.27 in10.0 miSSE (160°)3.5 mphClear
7:15 AM26.8 °F14.9 °F61 %30.27 in10.0 miSouth (190°)3.5 mphClear
7:35 AM25.9 °F14.7 °F63 %30.28 in10.0 miCalmClear
7:55 AM29.3 °F15.1 °F55 %30.30 in10.0 miSE (140°)3.5 mphClear
8:15 AM30.6 °F15.8 °F54 %30.30 in10.0 miSouth (190°)4.6 mphClear
8:35 AM32.2 °F16.0 °F51 %30.30 in10.0 miSouth (180°)3.5 mphClear
8:55 AM35.2 °F18.0 °F49 %30.30 in10.0 miCalmClear
9:15 AM37.6 °F19.8 °F49 %30.30 in10.0 miNorth (360°)4.6 mphClear
9:35 AM39.0 °F19.9 °F46 %30.30 in10.0 miCalmClear
9:55 AM41.0 °F20.1 °F43 %30.30 in10.0 miNorth (10°)3.5 mphClear
10:15 AM42.4 °F20.3 °F41 %30.29 in10.0 miNE (50°)3.5 mphClear
10:35 AM46.0 °F20.1 °F36 %30.28 in10.0 miNNW (330°)6.9 mphClear
10:55 AM50.4 °F19.9 °F30 %30.28 in10.0 miNorth (10°)13.8 mph19.6 mphClear
11:15 AM50.0 °F19.0 °F29 %30.26 in10.0 miNorth (360°)12.7 mphClear
11:35 AM51.6 °F18.5 °F27 %30.25 in10.0 miNorth (360°)16.1 mph19.6 mphClear
11:55 AM52.0 °F18.0 °F26 %30.25 in10.0 miNorth (10°)15.0 mph20.7 mphClear
12:15 PM52.7 °F18.3 °F26 %30.24 in10.0 miNorth (10°)12.7 mph18.4 mphClear
12:35 PM53.1 °F18.5 °F26 %30.24 in10.0 miNNE (20°)11.5 mphClear
12:55 PM53.2 °F18.7 °F26 %30.24 in10.0 miNNE (20°)12.7 mphClear
1:15 PM53.4 °F19.0 °F26 %30.24 in10.0 miNNE (30°)12.7 mphClear
1:35 PM53.6 °F18.9 °F26 %30.24 in10.0 miNNE (20°)5.8 mphClear
1:55 PM52.9 °F18.5 °F26 %30.24 in10.0 miENE (60°)4.6 mphClear
2:15 PM54.9 °F18.5 °F24 %30.23 in10.0 miNNE (20°)11.5 mphClear
2:35 PM54.5 °F18.5 °F24 %30.23 in10.0 miNorth (10°)8.1 mphClear
2:55 PM55.0 °F18.3 °F24 %30.22 in10.0 miNorth (10°)6.9 mph16.1 mphClear
3:15 PM54.9 °F18.0 °F24 %30.22 in10.0 miNE (40°)6.9 mphClear
3:35 PM54.7 °F18.0 °F24 %30.22 in10.0 miNorth (360°)6.9 mphClear
3:55 PM55.0 °F17.6 °F23 %30.22 in10.0 miNNE (30°)5.8 mphClear
4:15 PM54.5 °F17.8 °F24 %30.22 in10.0 miNNW (330°)4.6 mphClear
4:35 PM53.8 °F17.6 °F24 %30.22 in10.0 miNorth (360°)5.8 mphClear
4:55 PM52.5 °F17.6 °F25 %30.22 in10.0 miNorth (350°)6.9 mphClear
5:15 PM50.7 °F17.6 °F27 %30.22 in10.0 miNorth (350°)6.9 mphClear
5:35 PM48.2 °F17.6 °F30 %30.23 in10.0 miNNW (340°)5.8 mphClear
5:55 PM45.9 °F17.4 °F32 %30.23 in10.0 miNNW (330°)8.1 mphClear
6:15 PM44.4 °F17.2 °F34 %30.24 in10.0 miNW (320°)5.8 mphClear
6:35 PM42.8 °F17.1 °F36 %30.24 in10.0 miNNW (330°)5.8 mphClear
6:55 PM41.7 °F17.4 °F38 %30.23 in10.0 miNNW (330°)6.9 mphClear
7:15 PM41.7 °F17.6 °F38 %30.23 in10.0 miCalmClear
7:35 PM38.3 °F16.7 °F42 %30.23 in10.0 miCalmClear
7:55 PM36.7 °F17.1 °F45 %30.23 in10.0 miCalmClear
8:15 PM37.6 °F18.3 °F46 %30.24 in10.0 miWSW (250°)6.9 mphClear
8:35 PM38.5 °F18.3 °F44 %30.25 in10.0 miWSW (240°)8.1 mphClear
8:55 PM37.4 °F18.1 °F46 %30.26 in10.0 miWest (260°)5.8 mphClear
9:15 PM36.5 °F18.1 °F47 %30.26 in10.0 miWSW (250°)8.1 mphClear
9:35 PM37.6 °F18.1 °F45 %30.26 in10.0 miWSW (250°)9.2 mphClear
9:55 PM36.1 °F18.0 °F48 %30.27 in10.0 miCalmClear
10:15 PM36.0 °F18.3 °F49 %30.27 in10.0 miCalmClear
10:35 PM33.1 °F18.0 °F54 %30.27 in10.0 miNNW (330°)3.5 mphClear
10:55 PM32.0 °F17.4 °F55 %30.27 in10.0 miWNW (300°)6.9 mphClear
11:15 PM32.2 °F17.6 °F55 %30.27 in10.0 miNW (310°)8.1 mphClear
11:35 PM32.5 °F17.4 °F54 %30.26 in10.0 miNNW (330°)4.6 mphClear
11:55 PM32.7 °F17.4 °F53 %30.25 in10.0 miNNW (340°)4.6 mphClear
Hourly data recorded from KONM, located miles away from Magdalena, New Mexico







STORIES FROM OUR PARTNERS